| time (UTC) | temp C | wind direction | speed KPH | gust KPH | rain 1hr cm | rain 24hr cm | rain mn cm | humidity % | barometer mb |
| 20260503004558 | 21 | 208 | 1.6 | 8.0 | 0.00 | 0.00 | 0.00 | 31 | 1015.2 |
| 20260503003057 | 21 | 193 | 0.0 | 4.8 | 0.00 | 0.00 | 0.00 | 30 | 1015.2 |
| 20260503001557 | 21 | 0 | 1.6 | 8.0 | 0.00 | 0.00 | 0.00 | 29 | 1015.1 |
| 20260503000050 | 22 | 155 | 3.2 | 6.4 | 0.00 | 0.00 | 0.00 | 30 | 1015.1 |
| 20260502234556 | 22 | 320 | 1.6 | 8.0 | 0.00 | 0.00 | 0.00 | 25 | 1015.2 |
| 20260502233048 | 23 | 263 | 1.6 | 6.4 | 0.00 | 0.00 | 0.00 | 25 | 1015.3 |
| 20260502231552 | 22 | 290 | 1.6 | 16.1 | 0.00 | 0.00 | 0.00 | 28 | 1015.4 |
| 20260502230043 | 22 | 178 | 3.2 | 9.7 | 0.00 | 0.00 | 0.00 | 26 | 1015.5 |
| 20260502224549 | 22 | 55 | 3.2 | 9.7 | 0.00 | 0.00 | 0.00 | 26 | 1015.6 |
| 20260502223050 | 22 | 336 | 1.6 | 8.0 | 0.00 | 0.00 | 0.00 | 24 | 1015.7 |
| 20260502221551 | 22 | 274 | 1.6 | 4.8 | 0.00 | 0.00 | 0.00 | 29 | 1015.8 |
| 20260502220051 | 22 | 47 | 1.6 | 8.0 | 0.00 | 0.00 | 0.00 | 28 | 1015.8 |
| 20260502214552 | 22 | 191 | 1.6 | 12.9 | 0.00 | 0.00 | 0.00 | 28 | 1016.0 |
| 20260502213058 | 22 | 218 | 1.6 | 9.7 | 0.00 | 0.00 | 0.00 | 31 | 1016.1 |
| 20260502211555 | 21 | 0 | 3.2 | 8.0 | 0.00 | 0.00 | 0.00 | 31 | 1016.2 |
| 20260502210049 | 22 | 35 | 8.0 | 17.7 | 0.00 | 0.00 | 0.00 | 30 | 1016.2 |
| 20260502204556 | 22 | 54 | 6.4 | 17.7 | 0.00 | 0.00 | 0.00 | 31 | 1016.4 |
| 20260502203105 | 22 | 60 | 6.4 | 14.5 | 0.00 | 0.00 | 0.00 | 29 | 1016.5 |
| 20260502201554 | 22 | 43 | 6.4 | 16.1 | 0.00 | 0.00 | 0.00 | 31 | 1016.6 |
| 20260502200042 | 22 | 50 | 8.0 | 17.7 | 0.00 | 0.00 | 0.00 | 33 | 1016.7 |
| 20260502194541 | 22 | 34 | 6.4 | 16.1 | 0.00 | 0.00 | 0.00 | 32 | 1016.7 |
| 20260502193053 | 21 | 50 | 8.0 | 17.7 | 0.00 | 0.00 | 0.00 | 31 | 1016.7 |
| 20260502191548 | 21 | 29 | 8.0 | 16.1 | 0.00 | 0.00 | 0.00 | 31 | 1017.0 |
| 20260502190047 | 20 | 28 | 8.0 | 20.9 | 0.00 | 0.00 | 0.00 | 32 | 1017.3 |
| 20260502184557 | 20 | 12 | 9.7 | 17.7 | 0.00 | 0.00 | 0.00 | 35 | 1017.5 |
| 20260502183049 | 20 | 49 | 8.0 | 17.7 | 0.00 | 0.00 | 0.00 | 36 | 1017.6 |
| 20260502181548 | 19 | 37 | 8.0 | 14.5 | 0.00 | 0.00 | 0.00 | 37 | 1017.8 |
| 20260502163051 | 13 | 4 | 3.2 | 11.3 | 0.00 | 0.00 | 0.00 | 49 | 1019.2 |
| 20260502161551 | 12 | 33 | 4.8 | 12.9 | 0.00 | 0.00 | 0.00 | 48 | 1019.3 |
| 20260502151553 | 9 | 210 | 6.4 | 14.5 | 0.00 | 0.00 | 0.00 | 56 | 1019.7 |
| 20260502123053 | 5 | 186 | 6.4 | 16.1 | 0.00 | 0.00 | 0.00 | 64 | 1020.4 |
| 20260502121552 | 5 | 177 | 8.0 | 17.7 | 0.00 | 0.00 | 0.00 | 63 | 1020.3 |
| 20260502114551 | 5 | 186 | 6.4 | 19.3 | 0.00 | 0.00 | 0.00 | 64 | 1020.2 |
| 20260502113051 | 6 | 160 | 8.0 | 19.3 | 0.00 | 0.00 | 0.00 | 61 | 1020.0 |
| 20260502111604 | 5 | 169 | 9.7 | 17.7 | 0.00 | 0.00 | 0.00 | 66 | 1020.0 |
| 20260502110050 | 5 | 174 | 1.6 | 12.9 | 0.00 | 0.00 | 0.00 | 66 | 1019.9 |
| 20260502104550 | 6 | 178 | 4.8 | 17.7 | 0.00 | 0.00 | 0.00 | 63 | 1019.9 |
| 20260502103101 | 5 | 160 | 6.4 | 22.5 | 0.00 | 0.00 | 0.00 | 66 | 1019.8 |
| 20260502101601 | 5 | 0 | 3.2 | 17.7 | 0.00 | 0.00 | 0.00 | 65 | 1019.8 |
| 20260502070050 | 6 | 0 | 0.0 | 1.6 | 0.00 | 0.00 | 0.00 | 62 | 1019.3 |
| 20260502064547 | 6 | 0 | 0.0 | 3.2 | 0.00 | 0.00 | 0.00 | 62 | 1019.3 |
| 20260502063048 | 6 | 0 | 0.0 | 3.2 | 0.00 | 0.00 | 0.00 | 61 | 1019.2 |
| 20260502061553 | 7 | 261 | 0.0 | 3.2 | 0.00 | 0.00 | 0.00 | 59 | 1019.0 |
| 20260502060050 | 7 | 232 | 0.0 | 3.2 | 0.00 | 0.00 | 0.00 | 57 | 1019.0 |
| 20260502054555 | 7 | 0 | 0.0 | 4.8 | 0.00 | 0.00 | 0.00 | 55 | 1018.8 |
| 20260502053047 | 8 | 277 | 0.0 | 4.8 | 0.00 | 0.00 | 0.00 | 55 | 1018.8 |
| 20260502051548 | 8 | 288 | 1.6 | 6.4 | 0.00 | 0.00 | 0.00 | 55 | 1018.7 |
| 20260502050049 | 8 | 0 | 0.0 | 4.8 | 0.00 | 0.00 | 0.00 | 54 | 1018.5 |
| 20260502044549 | 8 | 0 | 1.6 | 6.4 | 0.00 | 0.00 | 0.00 | 52 | 1018.4 |
| 20260502043046 | 9 | 0 | 0.0 | 3.2 | 0.00 | 0.00 | 0.00 | 53 | 1018.3 |
| 20260502041549 | 8 | 269 | 1.6 | 3.2 | 0.00 | 0.00 | 0.00 | 53 | 1018.4 |
| 20260502040052 | 8 | 0 | 0.0 | 3.2 | 0.00 | 0.00 | 0.00 | 54 | 1018.3 |
| 20260502034550 | 9 | 246 | 0.0 | 3.2 | 0.00 | 0.00 | 0.00 | 53 | 1018.3 |
| 20260502033049 | 10 | 210 | 1.6 | 3.2 | 0.00 | 0.00 | 0.00 | 50 | 1018.0 |
| 20260502031548 | 11 | 222 | 1.6 | 3.2 | 0.00 | 0.00 | 0.00 | 50 | 1017.9 |
| 20260502030054 | 11 | 0 | 0.0 | 4.8 | 0.00 | 0.00 | 0.00 | 46 | 1017.6 |
| 20260502024552 | 12 | 201 | 1.6 | 6.4 | 0.00 | 0.00 | 0.00 | 45 | 1017.4 |
| 20260502023052 | 13 | 0 | 1.6 | 4.8 | 0.00 | 0.00 | 0.00 | 42 | 1017.2 |
| 20260502021549 | 15 | 174 | 1.6 | 6.4 | 0.00 | 0.00 | 0.00 | 38 | 1017.1 |
| 20260502020047 | 15 | 224 | 1.6 | 4.8 | 0.00 | 0.00 | 0.00 | 32 | 1017.1 |
| 20260502014549 | 16 | 243 | 3.2 | 9.7 | 0.00 | 0.00 | 0.00 | 34 | 1017.1 |
| 20260502013048 | 16 | 222 | 4.8 | 11.3 | 0.00 | 0.00 | 0.00 | 34 | 1017.1 |
| 20260502011549 | 18 | 213 | 3.2 | 9.7 | 0.00 | 0.00 | 0.00 | 24 | 1017.1 |
| 20260502010052 | 19 | 242 | 3.2 | 11.3 | 0.00 | 0.00 | 0.00 | 26 | 1017.1 |